Year,Month,Day,Hour,Minute,Value (Times are PST for temperature in C)
2012,06,20,00,00,10.10
2012,06,20,00,01,10.10
2012,06,20,00,02,10.00
2012,06,20,00,03,10.00
2012,06,20,00,04,10.00
2012,06,20,00,05,9.90
2012,06,20,00,06,9.90
2012,06,20,00,07,9.90
2012,06,20,00,08,9.90
2012,06,20,00,09,9.80
2012,06,20,00,10,9.80
2012,06,20,00,11,9.80
2012,06,20,00,12,9.80
2012,06,20,00,13,9.80
2012,06,20,00,14,9.80
2012,06,20,00,15,9.70
2012,06,20,00,16,9.70
2012,06,20,00,17,9.70
2012,06,20,00,18,9.70
2012,06,20,00,19,9.70
2012,06,20,00,20,9.60
2012,06,20,00,21,9.60
2012,06,20,00,22,9.60
2012,06,20,00,23,9.60
2012,06,20,00,24,9.60
2012,06,20,00,25,9.50
2012,06,20,00,26,9.50
2012,06,20,00,27,9.50
2012,06,20,00,28,9.50
2012,06,20,00,29,9.50
2012,06,20,00,30,9.50
2012,06,20,00,31,9.50
2012,06,20,00,32,9.50
2012,06,20,00,33,9.50
2012,06,20,00,34,9.50
2012,06,20,00,35,9.50
2012,06,20,00,36,9.40
2012,06,20,00,37,9.40
2012,06,20,00,38,9.40
2012,06,20,00,39,9.40
2012,06,20,00,40,9.40
2012,06,20,00,41,9.40
2012,06,20,00,42,9.40
2012,06,20,00,43,9.40
2012,06,20,00,44,9.40
2012,06,20,00,45,9.40
2012,06,20,00,46,9.40
2012,06,20,00,47,9.30
2012,06,20,00,48,9.30
2012,06,20,00,49,9.30
2012,06,20,00,50,9.30
2012,06,20,00,51,9.30
2012,06,20,00,52,9.30
2012,06,20,00,53,9.40
2012,06,20,00,54,9.30
2012,06,20,00,55,9.30
2012,06,20,00,56,9.30
2012,06,20,00,57,9.30
2012,06,20,00,58,9.30
2012,06,20,00,59,9.30
2012,06,20,01,00,9.30
2012,06,20,01,01,9.30
2012,06,20,01,02,9.20
2012,06,20,01,03,9.20
2012,06,20,01,04,9.20
2012,06,20,01,05,9.20
2012,06,20,01,06,9.20
2012,06,20,01,07,9.20
2012,06,20,01,08,9.20
2012,06,20,01,09,9.20
2012,06,20,01,10,9.20
2012,06,20,01,11,9.20
2012,06,20,01,12,9.20
2012,06,20,01,13,9.20
2012,06,20,01,14,9.20
2012,06,20,01,15,9.20
2012,06,20,01,16,9.20
2012,06,20,01,17,9.10
2012,06,20,01,18,9.10
2012,06,20,01,19,9.10
2012,06,20,01,20,9.10
2012,06,20,01,21,9.10
2012,06,20,01,22,9.10
2012,06,20,01,23,9.10
2012,06,20,01,24,9.00
2012,06,20,01,25,9.00
2012,06,20,01,26,9.00
2012,06,20,01,27,9.00
2012,06,20,01,28,9.00
2012,06,20,01,29,9.00
2012,06,20,01,30,9.00
2012,06,20,01,31,9.00
2012,06,20,01,32,9.00
2012,06,20,01,33,9.00
2012,06,20,01,34,9.00
2012,06,20,01,35,9.00
2012,06,20,01,36,8.90
2012,06,20,01,37,8.90
2012,06,20,01,38,8.90
2012,06,20,01,39,8.90
2012,06,20,01,40,8.90
2012,06,20,01,41,8.90
2012,06,20,01,42,8.90
2012,06,20,01,43,8.90
2012,06,20,01,44,8.90
2012,06,20,01,45,8.80
2012,06,20,01,46,8.80
2012,06,20,01,47,8.80
2012,06,20,01,48,8.80
2012,06,20,01,49,8.80
2012,06,20,01,50,8.80
2012,06,20,01,51,8.80
2012,06,20,01,52,8.80
2012,06,20,01,53,8.80
2012,06,20,01,54,8.80
2012,06,20,01,55,8.80
2012,06,20,01,56,8.80
2012,06,20,01,57,8.80
2012,06,20,01,58,8.80
2012,06,20,01,59,8.80
2012,06,20,02,00,8.80
2012,06,20,02,01,8.80
2012,06,20,02,02,8.80
2012,06,20,02,03,8.80
2012,06,20,02,04,8.80
2012,06,20,02,05,8.80
2012,06,20,02,06,8.90
2012,06,20,02,07,8.90
2012,06,20,02,08,8.90
2012,06,20,02,09,8.90
2012,06,20,02,10,8.90
2012,06,20,02,11,8.90
2012,06,20,02,12,8.90
2012,06,20,02,13,8.90
2012,06,20,02,14,8.90
2012,06,20,02,15,8.90
2012,06,20,02,16,8.90
2012,06,20,02,17,8.80
2012,06,20,02,18,8.80
2012,06,20,02,19,8.80
2012,06,20,02,20,8.80
2012,06,20,02,21,8.80
2012,06,20,02,22,8.80
2012,06,20,02,23,8.80
2012,06,20,02,24,8.70
2012,06,20,02,25,8.70
2012,06,20,02,26,8.70
2012,06,20,02,27,8.70
2012,06,20,02,28,8.70
2012,06,20,02,29,8.70
2012,06,20,02,30,8.70
2012,06,20,02,31,8.70
2012,06,20,02,32,8.70
2012,06,20,02,33,8.70
2012,06,20,02,34,8.70
2012,06,20,02,35,8.70
2012,06,20,02,36,8.70
2012,06,20,02,37,8.70
2012,06,20,02,38,8.70
2012,06,20,02,39,8.60
2012,06,20,02,40,8.60
2012,06,20,02,41,8.60
2012,06,20,02,42,8.60
2012,06,20,02,43,8.60
2012,06,20,02,44,8.60
2012,06,20,02,45,8.60
2012,06,20,02,46,8.60
2012,06,20,02,47,8.60
2012,06,20,02,48,8.60
2012,06,20,02,49,8.60
2012,06,20,02,50,8.60
2012,06,20,02,51,8.60
2012,06,20,02,52,8.60
2012,06,20,02,53,8.60
2012,06,20,02,54,8.50
2012,06,20,02,55,8.50
2012,06,20,02,56,8.50
2012,06,20,02,57,8.50
2012,06,20,02,58,8.50
2012,06,20,02,59,8.50
2012,06,20,03,00,8.50
2012,06,20,03,01,8.50
2012,06,20,03,02,8.40
2012,06,20,03,03,8.40
2012,06,20,03,04,8.40
2012,06,20,03,05,8.40
2012,06,20,03,06,8.40
2012,06,20,03,07,8.40
2012,06,20,03,08,8.40
2012,06,20,03,09,8.40
2012,06,20,03,10,8.40
2012,06,20,03,11,8.40
2012,06,20,03,12,8.40
2012,06,20,03,13,8.40
2012,06,20,03,14,8.40
2012,06,20,03,15,8.30
2012,06,20,03,16,8.30
2012,06,20,03,17,8.30
2012,06,20,03,18,8.30
2012,06,20,03,19,8.30
2012,06,20,03,20,8.30
2012,06,20,03,21,8.30
2012,06,20,03,22,8.30
2012,06,20,03,23,8.30
2012,06,20,03,24,8.30
2012,06,20,03,25,8.30
2012,06,20,03,26,8.30
2012,06,20,03,27,8.30
2012,06,20,03,28,8.30
2012,06,20,03,29,8.30
2012,06,20,03,30,8.30
2012,06,20,03,31,8.20
2012,06,20,03,32,8.20
2012,06,20,03,33,8.20
2012,06,20,03,34,8.20
2012,06,20,03,35,8.20
2012,06,20,03,36,8.20
2012,06,20,03,37,8.20
2012,06,20,03,38,8.20
2012,06,20,03,39,8.20
2012,06,20,03,40,8.20
2012,06,20,03,41,8.20
2012,06,20,03,42,8.20
2012,06,20,03,43,8.20
2012,06,20,03,44,8.20
2012,06,20,03,45,8.20
2012,06,20,03,46,8.20
2012,06,20,03,47,8.20
2012,06,20,03,48,8.10
2012,06,20,03,49,8.10
2012,06,20,03,50,8.10
2012,06,20,03,51,8.10
2012,06,20,03,52,8.10
2012,06,20,03,53,8.10
2012,06,20,03,54,8.10
2012,06,20,03,55,8.10
2012,06,20,03,56,8.10
2012,06,20,03,57,8.10
2012,06,20,03,58,8.10
2012,06,20,03,59,8.10
2012,06,20,04,00,8.10
2012,06,20,04,01,8.10
2012,06,20,04,02,8.10
2012,06,20,04,03,8.10
2012,06,20,04,04,8.10
2012,06,20,04,05,8.10
2012,06,20,04,06,8.00
2012,06,20,04,07,8.00
2012,06,20,04,08,8.00
2012,06,20,04,09,8.00
2012,06,20,04,10,8.00
2012,06,20,04,11,8.00
2012,06,20,04,12,8.00
2012,06,20,04,13,8.00
2012,06,20,04,14,8.00
2012,06,20,04,15,8.00
2012,06,20,04,16,8.00
2012,06,20,04,17,8.00
2012,06,20,04,18,8.00
2012,06,20,04,19,8.00
2012,06,20,04,20,8.00
2012,06,20,04,21,8.00
2012,06,20,04,22,8.10
2012,06,20,04,23,8.10
2012,06,20,04,24,8.10
2012,06,20,04,25,8.10
2012,06,20,04,26,8.10
2012,06,20,04,27,8.10
2012,06,20,04,28,8.10
2012,06,20,04,29,8.10
2012,06,20,04,30,8.10
2012,06,20,04,31,8.00
2012,06,20,04,32,8.00
2012,06,20,04,33,8.00
2012,06,20,04,34,8.00
2012,06,20,04,35,8.00
2012,06,20,04,36,8.00
2012,06,20,04,37,8.00
2012,06,20,04,38,8.00
2012,06,20,04,39,7.90
2012,06,20,04,40,7.90
2012,06,20,04,41,7.90
2012,06,20,04,42,7.90
2012,06,20,04,43,7.90
2012,06,20,04,44,7.90
2012,06,20,04,45,7.90
2012,06,20,04,46,7.90
2012,06,20,04,47,7.90
2012,06,20,04,48,7.80
2012,06,20,04,49,7.80
2012,06,20,04,50,7.80
2012,06,20,04,51,7.80
2012,06,20,04,52,7.80
2012,06,20,04,53,7.80
2012,06,20,04,54,7.80
2012,06,20,04,55,7.80
2012,06,20,04,56,7.80
2012,06,20,04,57,7.80
2012,06,20,04,58,7.80
2012,06,20,04,59,7.80
2012,06,20,05,00,7.80
2012,06,20,05,01,7.90
2012,06,20,05,02,7.90
2012,06,20,05,03,7.90
2012,06,20,05,04,7.90
2012,06,20,05,05,7.90
2012,06,20,05,06,7.90
2012,06,20,05,07,7.90
2012,06,20,05,08,7.90
2012,06,20,05,09,7.90
2012,06,20,05,10,7.90
2012,06,20,05,11,7.90
2012,06,20,05,12,7.90
2012,06,20,05,13,7.90
2012,06,20,05,14,7.90
2012,06,20,05,15,7.90
2012,06,20,05,16,7.80
2012,06,20,05,17,7.80
2012,06,20,05,18,7.80
2012,06,20,05,19,7.80
2012,06,20,05,20,7.80
2012,06,20,05,21,7.80
2012,06,20,05,22,7.80
2012,06,20,05,23,7.80
2012,06,20,05,24,7.80
2012,06,20,05,25,7.80
2012,06,20,05,26,7.80
2012,06,20,05,27,7.80
2012,06,20,05,28,7.80
2012,06,20,05,29,7.80
2012,06,20,05,30,7.80
2012,06,20,05,31,7.80
2012,06,20,05,32,7.80
2012,06,20,05,33,7.80
2012,06,20,05,34,7.80
2012,06,20,05,35,7.80
2012,06,20,05,36,7.80
2012,06,20,05,37,7.80
2012,06,20,05,38,7.80
2012,06,20,05,39,7.80
2012,06,20,05,40,7.80
2012,06,20,05,41,7.90
2012,06,20,05,42,7.90
2012,06,20,05,43,7.90
2012,06,20,05,44,7.90
2012,06,20,05,45,7.90
2012,06,20,05,46,7.90
2012,06,20,05,47,7.90
2012,06,20,05,48,8.00
2012,06,20,05,49,8.00
2012,06,20,05,50,8.00
2012,06,20,05,51,8.00
2012,06,20,05,52,8.00
2012,06,20,05,53,8.00
2012,06,20,05,54,8.10
2012,06,20,05,55,8.10
2012,06,20,05,56,8.10
2012,06,20,05,57,8.10
2012,06,20,05,58,8.10
2012,06,20,05,59,8.10
2012,06,20,06,00,8.10
2012,06,20,06,01,8.10
2012,06,20,06,02,8.10
2012,06,20,06,03,8.20
2012,06,20,06,04,8.20
2012,06,20,06,05,8.20
2012,06,20,06,06,8.20
2012,06,20,06,07,8.20
2012,06,20,06,08,8.20
2012,06,20,06,09,8.20
2012,06,20,06,10,8.20
2012,06,20,06,11,8.30
2012,06,20,06,12,8.30
2012,06,20,06,13,8.30
2012,06,20,06,14,8.40
2012,06,20,06,15,8.40
2012,06,20,06,16,8.40
2012,06,20,06,17,8.40
2012,06,20,06,18,8.50
2012,06,20,06,19,8.50
2012,06,20,06,20,8.50
2012,06,20,06,21,8.50
2012,06,20,06,22,8.50
2012,06,20,06,23,8.50
2012,06,20,06,24,8.60
2012,06,20,06,25,8.60
2012,06,20,06,26,8.60
2012,06,20,06,27,8.60
2012,06,20,06,28,8.60
2012,06,20,06,29,8.70
2012,06,20,06,30,8.70
2012,06,20,06,31,8.70
2012,06,20,06,32,8.70
2012,06,20,06,33,8.80
2012,06,20,06,34,8.80
2012,06,20,06,35,8.80
2012,06,20,06,36,8.90
2012,06,20,06,37,8.90
2012,06,20,06,38,9.00
2012,06,20,06,39,9.00
2012,06,20,06,40,9.10
2012,06,20,06,41,9.10
2012,06,20,06,42,9.20
2012,06,20,06,43,9.20
2012,06,20,06,44,9.30
2012,06,20,06,45,9.30
2012,06,20,06,46,9.40
2012,06,20,06,47,9.50
2012,06,20,06,48,9.60
2012,06,20,06,49,9.70
2012,06,20,06,50,9.80
2012,06,20,06,51,9.90
2012,06,20,06,52,10.10
2012,06,20,06,53,10.20
2012,06,20,06,54,10.30
2012,06,20,06,55,10.40
2012,06,20,06,56,10.60
2012,06,20,06,57,10.70
2012,06,20,06,58,10.80
2012,06,20,06,59,10.90
2012,06,20,07,00,11.00
2012,06,20,07,01,11.10
2012,06,20,07,02,11.20
2012,06,20,07,03,11.30
2012,06,20,07,04,11.40
2012,06,20,07,05,11.50
2012,06,20,07,06,11.60
2012,06,20,07,07,11.70
2012,06,20,07,08,11.80
2012,06,20,07,09,11.90
2012,06,20,07,10,12.00
2012,06,20,07,11,12.10
2012,06,20,07,12,12.20
2012,06,20,07,13,12.30
2012,06,20,07,14,12.40
2012,06,20,07,15,12.50
2012,06,20,07,16,12.60
2012,06,20,07,17,12.70
2012,06,20,07,18,12.80
2012,06,20,07,19,12.90
2012,06,20,07,20,13.00
2012,06,20,07,21,13.00
2012,06,20,07,22,13.10
2012,06,20,07,23,13.20
2012,06,20,07,24,13.30
2012,06,20,07,25,13.30
2012,06,20,07,26,13.40
2012,06,20,07,27,13.50
2012,06,20,07,28,13.50
2012,06,20,07,29,13.60
2012,06,20,07,30,13.70
2012,06,20,07,31,13.70
2012,06,20,07,32,13.80
2012,06,20,07,33,13.90
2012,06,20,07,34,14.00
2012,06,20,07,35,14.00
2012,06,20,07,36,14.10
2012,06,20,07,37,14.20
2012,06,20,07,38,14.20
2012,06,20,07,39,14.30
2012,06,20,07,40,14.30
2012,06,20,07,41,14.40
2012,06,20,07,42,14.50
2012,06,20,07,43,14.50
2012,06,20,07,44,14.60
2012,06,20,07,45,14.70
2012,06,20,07,46,14.80
2012,06,20,07,47,14.80
2012,06,20,07,48,14.80
2012,06,20,07,49,14.90
2012,06,20,07,50,14.90
2012,06,20,07,51,14.90
2012,06,20,07,52,14.90
2012,06,20,07,53,14.90
2012,06,20,07,54,14.90
2012,06,20,07,55,15.00
2012,06,20,07,56,15.00
2012,06,20,07,57,15.00
2012,06,20,07,58,15.00
2012,06,20,07,59,15.10
2012,06,20,08,00,15.10
2012,06,20,08,01,15.10
2012,06,20,08,02,15.10
2012,06,20,08,03,15.20
2012,06,20,08,04,15.20
2012,06,20,08,05,15.10
2012,06,20,08,06,15.10
2012,06,20,08,07,15.20
2012,06,20,08,08,15.20
2012,06,20,08,09,15.20
2012,06,20,08,10,15.20
2012,06,20,08,11,15.20
2012,06,20,08,12,15.30
2012,06,20,08,13,15.30
2012,06,20,08,14,15.30
2012,06,20,08,15,15.30
2012,06,20,08,16,15.30
2012,06,20,08,17,15.30
2012,06,20,08,18,15.30
2012,06,20,08,19,15.30
2012,06,20,08,20,15.40
2012,06,20,08,21,15.40
2012,06,20,08,22,15.40
2012,06,20,08,23,15.40
2012,06,20,08,24,15.40
2012,06,20,08,25,15.40
2012,06,20,08,26,15.50
2012,06,20,08,27,15.50
2012,06,20,08,28,15.50
2012,06,20,08,29,15.60
2012,06,20,08,30,15.60
2012,06,20,08,31,15.60
2012,06,20,08,32,15.60
2012,06,20,08,33,15.60
2012,06,20,08,34,15.70
2012,06,20,08,35,15.70
2012,06,20,08,36,15.70
2012,06,20,08,37,15.70
2012,06,20,08,38,15.70
2012,06,20,08,39,15.70
2012,06,20,08,40,15.70
2012,06,20,08,41,15.70
2012,06,20,08,42,15.70
2012,06,20,08,43,15.70
2012,06,20,08,44,15.70
2012,06,20,08,45,15.70
2012,06,20,08,46,15.70
2012,06,20,08,47,15.70
2012,06,20,08,48,15.70
2012,06,20,08,49,15.70
2012,06,20,08,50,15.70
2012,06,20,08,51,15.80
2012,06,20,08,52,15.80
2012,06,20,08,53,15.80
2012,06,20,08,54,15.80
2012,06,20,08,55,15.80
2012,06,20,08,56,15.80
2012,06,20,08,57,15.80
2012,06,20,08,58,15.80
2012,06,20,08,59,15.80
2012,06,20,09,00,15.80
2012,06,20,09,01,15.80
2012,06,20,09,02,15.80
2012,06,20,09,03,15.80
2012,06,20,09,04,15.90
2012,06,20,09,05,15.90
2012,06,20,09,06,15.90
2012,06,20,09,07,15.90
2012,06,20,09,08,15.90
2012,06,20,09,09,15.80
2012,06,20,09,10,15.80
2012,06,20,09,11,15.80
2012,06,20,09,12,15.80
2012,06,20,09,13,15.80
2012,06,20,09,14,15.80
2012,06,20,09,15,15.90
2012,06,20,09,16,15.90
2012,06,20,09,17,15.90
2012,06,20,09,18,15.90
2012,06,20,09,19,15.90
2012,06,20,09,20,15.90
2012,06,20,09,21,15.90
2012,06,20,09,22,15.90
2012,06,20,09,23,15.90
2012,06,20,09,24,15.90
2012,06,20,09,25,15.90
2012,06,20,09,26,16.00
2012,06,20,09,27,16.00
2012,06,20,09,28,16.00
2012,06,20,09,29,16.10
2012,06,20,09,30,16.10
2012,06,20,09,31,16.10
2012,06,20,09,32,16.10
2012,06,20,09,33,16.10
2012,06,20,09,34,16.20
2012,06,20,09,35,16.20
2012,06,20,09,36,16.20
2012,06,20,09,37,16.20
2012,06,20,09,38,16.30
2012,06,20,09,39,16.30
2012,06,20,09,40,16.30
2012,06,20,09,41,16.40
2012,06,20,09,42,16.40
2012,06,20,09,43,16.40
2012,06,20,09,44,16.50
2012,06,20,09,45,16.50
2012,06,20,09,46,16.60
2012,06,20,09,47,16.70
2012,06,20,09,48,16.70
2012,06,20,09,49,16.80
2012,06,20,09,50,16.80
2012,06,20,09,51,16.90
2012,06,20,09,52,16.90
2012,06,20,09,53,16.90
2012,06,20,09,54,16.90
2012,06,20,09,55,16.90
2012,06,20,09,56,16.90
2012,06,20,09,57,16.90
2012,06,20,09,58,16.80
2012,06,20,09,59,16.80
2012,06,20,10,00,16.80
2012,06,20,10,01,16.80
2012,06,20,10,02,16.70
2012,06,20,10,03,16.70
2012,06,20,10,04,16.70
2012,06,20,10,05,16.60
2012,06,20,10,06,16.60
2012,06,20,10,07,16.60
2012,06,20,10,08,16.60
2012,06,20,10,09,16.60
2012,06,20,10,10,16.70
2012,06,20,10,11,16.70
2012,06,20,10,12,16.80
2012,06,20,10,13,16.80
2012,06,20,10,14,16.80
2012,06,20,10,15,16.70
2012,06,20,10,16,16.70
2012,06,20,10,17,16.70
2012,06,20,10,18,16.70
2012,06,20,10,19,16.70
2012,06,20,10,20,16.70
2012,06,20,10,21,16.70
2012,06,20,10,22,16.70
2012,06,20,10,23,16.80
2012,06,20,10,24,16.90
2012,06,20,10,25,16.90
2012,06,20,10,26,17.00
2012,06,20,10,27,17.00
2012,06,20,10,28,17.00
2012,06,20,10,29,16.90
2012,06,20,10,30,16.90
2012,06,20,10,31,16.90
2012,06,20,10,32,16.90
2012,06,20,10,33,16.90
2012,06,20,10,34,17.00
2012,06,20,10,35,17.00
2012,06,20,10,36,17.10
2012,06,20,10,37,17.10
2012,06,20,10,38,17.20
2012,06,20,10,39,17.20
2012,06,20,10,40,17.20
2012,06,20,10,41,17.20
2012,06,20,10,42,17.30
2012,06,20,10,43,17.30
2012,06,20,10,44,17.30
2012,06,20,10,45,17.30
2012,06,20,10,46,17.30
2012,06,20,10,47,17.40
2012,06,20,10,48,17.40
2012,06,20,10,49,17.40
2012,06,20,10,50,17.40
2012,06,20,10,51,17.40
2012,06,20,10,52,17.30
2012,06,20,10,53,17.30
2012,06,20,10,54,17.30
2012,06,20,10,55,17.40
2012,06,20,10,56,17.40
2012,06,20,10,57,17.40
2012,06,20,10,58,17.50
2012,06,20,10,59,17.50
2012,06,20,11,00,17.50
2012,06,20,11,01,17.50
2012,06,20,11,02,17.60
2012,06,20,11,03,17.50
2012,06,20,11,04,17.50
2012,06,20,11,05,17.50
2012,06,20,11,06,17.60
2012,06,20,11,07,17.60
2012,06,20,11,08,17.60
2012,06,20,11,09,17.60
2012,06,20,11,10,17.60
2012,06,20,11,11,17.70
2012,06,20,11,12,17.70
2012,06,20,11,13,17.70
2012,06,20,11,14,17.60
2012,06,20,11,15,17.50
2012,06,20,11,16,17.50
2012,06,20,11,17,17.50
2012,06,20,11,18,17.60
2012,06,20,11,19,17.60
2012,06,20,11,20,17.70
2012,06,20,11,21,17.70
2012,06,20,11,22,17.70
2012,06,20,11,23,17.70
2012,06,20,11,24,17.70
2012,06,20,11,25,17.70
2012,06,20,11,26,17.70
2012,06,20,11,27,17.70
2012,06,20,11,28,17.70
2012,06,20,11,29,17.80
2012,06,20,11,30,17.90
2012,06,20,11,31,17.90
2012,06,20,11,32,17.90
2012,06,20,11,33,17.90
2012,06,20,11,34,17.90
2012,06,20,11,35,17.90
2012,06,20,11,36,17.90
2012,06,20,11,37,17.90
2012,06,20,11,38,17.90
2012,06,20,11,39,18.00
2012,06,20,11,40,18.10
2012,06,20,11,41,18.20
2012,06,20,11,42,18.20
2012,06,20,11,43,18.30
2012,06,20,11,44,18.20
2012,06,20,11,45,18.20
2012,06,20,11,46,18.20
2012,06,20,11,47,18.30
2012,06,20,11,48,18.30
2012,06,20,11,49,18.40
2012,06,20,11,50,18.50
2012,06,20,11,51,18.60
2012,06,20,11,52,18.60
2012,06,20,11,53,18.70
2012,06,20,11,54,18.80
2012,06,20,11,55,18.80
2012,06,20,11,56,18.80
2012,06,20,11,57,18.80
2012,06,20,11,58,18.70
2012,06,20,11,59,18.70
2012,06,20,12,00,18.70
2012,06,20,12,01,18.70
2012,06,20,12,02,18.70
2012,06,20,12,03,18.80
2012,06,20,12,04,18.80
2012,06,20,12,05,18.80
2012,06,20,12,06,18.80
2012,06,20,12,07,18.90
2012,06,20,12,08,18.90
2012,06,20,12,09,18.90
2012,06,20,12,10,19.00
2012,06,20,12,11,19.00
2012,06,20,12,12,19.10
2012,06,20,12,13,19.10
2012,06,20,12,14,19.20
2012,06,20,12,15,19.20
2012,06,20,12,16,19.30
2012,06,20,12,17,19.30
2012,06,20,12,18,19.30
2012,06,20,12,19,19.20
2012,06,20,12,20,19.20
2012,06,20,12,21,19.10
2012,06,20,12,22,19.00
2012,06,20,12,23,19.00
2012,06,20,12,24,18.90
2012,06,20,12,25,18.90
2012,06,20,12,26,18.90
2012,06,20,12,27,18.90
2012,06,20,12,28,19.00
2012,06,20,12,29,19.00
2012,06,20,12,30,19.10
2012,06,20,12,31,19.00
2012,06,20,12,32,19.00
2012,06,20,12,33,19.00
2012,06,20,12,34,19.10
2012,06,20,12,35,19.10
2012,06,20,12,36,19.10
2012,06,20,12,37,19.10
2012,06,20,12,38,19.20
2012,06,20,12,39,19.20
2012,06,20,12,40,19.20
2012,06,20,12,41,19.10
2012,06,20,12,42,19.00
2012,06,20,12,43,18.90
2012,06,20,12,44,18.90
2012,06,20,12,45,18.90
2012,06,20,12,46,18.90
2012,06,20,12,47,18.90
2012,06,20,12,48,18.90
2012,06,20,12,49,18.90
2012,06,20,12,50,18.80
2012,06,20,12,51,18.70
2012,06,20,12,52,18.70
2012,06,20,12,53,18.70
2012,06,20,12,54,18.70
2012,06,20,12,55,18.80
2012,06,20,12,56,18.70
2012,06,20,12,57,18.70
2012,06,20,12,58,18.70
2012,06,20,12,59,18.70
2012,06,20,13,00,18.70
2012,06,20,13,01,18.70
2012,06,20,13,02,18.70
2012,06,20,13,03,18.70
2012,06,20,13,04,18.70
2012,06,20,13,05,18.70
2012,06,20,13,06,18.70
2012,06,20,13,07,18.70
2012,06,20,13,08,18.70
2012,06,20,13,09,18.70
2012,06,20,13,10,18.70
2012,06,20,13,11,18.70
2012,06,20,13,12,18.60
2012,06,20,13,13,18.50
2012,06,20,13,14,18.50
2012,06,20,13,15,18.40
2012,06,20,13,16,18.40
2012,06,20,13,17,18.40
2012,06,20,13,18,18.40
2012,06,20,13,19,18.40
2012,06,20,13,20,18.50
2012,06,20,13,21,18.50
2012,06,20,13,22,18.50
2012,06,20,13,23,18.50
2012,06,20,13,24,18.50
2012,06,20,13,25,18.40
2012,06,20,13,26,18.40
2012,06,20,13,27,18.30
2012,06,20,13,28,18.30
2012,06,20,13,29,18.20
2012,06,20,13,30,18.20
2012,06,20,13,31,18.30
2012,06,20,13,32,18.40
2012,06,20,13,33,18.40
2012,06,20,13,34,18.50
2012,06,20,13,35,18.60
2012,06,20,13,36,18.70
2012,06,20,13,37,18.70
2012,06,20,13,38,18.70
2012,06,20,13,39,18.60
2012,06,20,13,40,18.40
2012,06,20,13,41,18.30
2012,06,20,13,42,18.10
2012,06,20,13,43,17.90
2012,06,20,13,44,17.70
2012,06,20,13,45,17.50
2012,06,20,13,46,17.30
2012,06,20,13,47,17.20
2012,06,20,13,48,17.20
2012,06,20,13,49,17.10
2012,06,20,13,50,17.00
2012,06,20,13,51,16.90
2012,06,20,13,52,16.80
2012,06,20,13,53,16.60
2012,06,20,13,54,16.50
2012,06,20,13,55,16.40
2012,06,20,13,56,16.40
2012,06,20,13,57,16.40
2012,06,20,13,58,16.40
2012,06,20,13,59,16.40
2012,06,20,14,00,16.50
2012,06,20,14,01,16.60
2012,06,20,14,02,16.60
2012,06,20,14,03,16.70
2012,06,20,14,04,16.80
2012,06,20,14,05,16.90
2012,06,20,14,06,16.90
2012,06,20,14,07,16.90
2012,06,20,14,08,16.90
2012,06,20,14,09,17.00
2012,06,20,14,10,17.10
2012,06,20,14,11,17.00
2012,06,20,14,12,17.00
2012,06,20,14,13,17.00
2012,06,20,14,14,17.00
2012,06,20,14,15,17.10
2012,06,20,14,16,17.00
2012,06,20,14,17,16.90
2012,06,20,14,18,16.80
2012,06,20,14,19,16.70
2012,06,20,14,20,16.60
2012,06,20,14,21,16.60
2012,06,20,14,22,16.50
2012,06,20,14,23,16.50
2012,06,20,14,24,16.50
2012,06,20,14,25,16.60
2012,06,20,14,26,16.60
2012,06,20,14,27,16.60
2012,06,20,14,28,16.70
2012,06,20,14,29,16.80
2012,06,20,14,30,17.00
2012,06,20,14,31,17.10
2012,06,20,14,32,17.30
2012,06,20,14,33,17.30
2012,06,20,14,34,17.40
2012,06,20,14,35,17.40
2012,06,20,14,36,17.50
2012,06,20,14,37,17.50
2012,06,20,14,38,17.40
2012,06,20,14,39,17.20
2012,06,20,14,40,17.00
2012,06,20,14,41,16.90
2012,06,20,14,42,16.90
2012,06,20,14,43,16.90
2012,06,20,14,44,16.90
2012,06,20,14,45,16.90
2012,06,20,14,46,16.90
2012,06,20,14,47,16.90
2012,06,20,14,48,17.00
2012,06,20,14,49,17.10
2012,06,20,14,50,17.20
2012,06,20,14,51,17.20
2012,06,20,14,52,17.30
2012,06,20,14,53,17.30
2012,06,20,14,54,17.40
2012,06,20,14,55,17.30
2012,06,20,14,56,17.30
2012,06,20,14,57,17.30
2012,06,20,14,58,17.20
2012,06,20,14,59,17.20
2012,06,20,15,00,17.20
2012,06,20,15,01,17.30
2012,06,20,15,02,17.30
2012,06,20,15,03,17.30
2012,06,20,15,04,17.20
2012,06,20,15,05,17.10
2012,06,20,15,06,17.00
2012,06,20,15,07,16.90
2012,06,20,15,08,16.90
2012,06,20,15,09,16.90
2012,06,20,15,10,17.00
2012,06,20,15,11,17.10
2012,06,20,15,12,17.20
2012,06,20,15,13,17.30
2012,06,20,15,14,17.50
2012,06,20,15,15,17.60
2012,06,20,15,16,17.60
2012,06,20,15,17,17.60
2012,06,20,15,18,17.70
2012,06,20,15,19,17.60
2012,06,20,15,20,17.60
2012,06,20,15,21,17.60
2012,06,20,15,22,17.50
2012,06,20,15,23,17.50
2012,06,20,15,24,17.40
2012,06,20,15,25,17.40
2012,06,20,15,26,17.40
2012,06,20,15,27,17.40
2012,06,20,15,28,17.30
2012,06,20,15,29,17.30
2012,06,20,15,30,17.20
2012,06,20,15,31,17.10
2012,06,20,15,32,17.00
2012,06,20,15,33,16.90
2012,06,20,15,34,16.80
2012,06,20,15,35,16.80
2012,06,20,15,36,16.80
2012,06,20,15,37,16.80
2012,06,20,15,38,16.90
2012,06,20,15,39,17.00
2012,06,20,15,40,17.00
2012,06,20,15,41,17.00
2012,06,20,15,42,17.10
2012,06,20,15,43,17.10
2012,06,20,15,44,17.20
2012,06,20,15,45,17.30
2012,06,20,15,46,17.30
2012,06,20,15,47,17.40
2012,06,20,15,48,17.50
2012,06,20,15,49,17.60
2012,06,20,15,50,17.60
2012,06,20,15,51,17.70
2012,06,20,15,52,17.70
2012,06,20,15,53,17.70
2012,06,20,15,54,17.80
2012,06,20,15,55,17.80
2012,06,20,15,56,17.90
2012,06,20,15,57,17.90
2012,06,20,15,58,17.90
2012,06,20,15,59,17.90
2012,06,20,16,00,17.90
2012,06,20,16,01,17.80
2012,06,20,16,02,17.70
2012,06,20,16,03,17.60
2012,06,20,16,04,17.50
2012,06,20,16,05,17.40
2012,06,20,16,06,17.40
2012,06,20,16,07,17.40
2012,06,20,16,08,17.30
2012,06,20,16,09,17.40
2012,06,20,16,10,17.40
2012,06,20,16,11,17.40
2012,06,20,16,12,17.50
2012,06,20,16,13,17.60
2012,06,20,16,14,17.70
2012,06,20,16,15,17.80
2012,06,20,16,16,17.80
2012,06,20,16,17,17.90
2012,06,20,16,18,17.90
2012,06,20,16,19,17.90
2012,06,20,16,20,17.90
2012,06,20,16,21,17.90
2012,06,20,16,22,17.90
2012,06,20,16,23,17.90
2012,06,20,16,24,17.80
2012,06,20,16,25,17.80
2012,06,20,16,26,17.80
2012,06,20,16,27,17.70
2012,06,20,16,28,17.60
2012,06,20,16,29,17.50
2012,06,20,16,30,17.50
2012,06,20,16,31,17.40
2012,06,20,16,32,17.40
2012,06,20,16,33,17.50
2012,06,20,16,34,17.50
2012,06,20,16,35,17.50
2012,06,20,16,36,17.60
2012,06,20,16,37,17.70
2012,06,20,16,38,17.70
2012,06,20,16,39,17.80
2012,06,20,16,40,17.80
2012,06,20,16,41,17.80
2012,06,20,16,42,17.80
2012,06,20,16,43,17.80
2012,06,20,16,44,17.80
2012,06,20,16,45,17.80
2012,06,20,16,46,17.80
2012,06,20,16,47,17.80
2012,06,20,16,48,17.80
2012,06,20,16,49,17.70
2012,06,20,16,50,17.60
2012,06,20,16,51,17.60
2012,06,20,16,52,17.50
2012,06,20,16,53,17.40
2012,06,20,16,54,17.40
2012,06,20,16,55,17.40
2012,06,20,16,56,17.40
2012,06,20,16,57,17.40
2012,06,20,16,58,17.50
2012,06,20,16,59,17.50
2012,06,20,17,00,17.60
2012,06,20,17,01,17.70
2012,06,20,17,02,17.70
2012,06,20,17,03,17.80
2012,06,20,17,04,17.80
2012,06,20,17,05,17.90
2012,06,20,17,06,17.90
2012,06,20,17,07,17.90
2012,06,20,17,08,17.90
2012,06,20,17,09,17.90
2012,06,20,17,10,17.90
2012,06,20,17,11,17.90
2012,06,20,17,12,17.80
2012,06,20,17,13,17.80
2012,06,20,17,14,17.80
2012,06,20,17,15,17.80
2012,06,20,17,16,17.80
2012,06,20,17,17,17.80
2012,06,20,17,18,17.80
2012,06,20,17,19,17.80
2012,06,20,17,20,17.80
2012,06,20,17,21,17.80
2012,06,20,17,22,17.80
2012,06,20,17,23,17.80
2012,06,20,17,24,17.80
2012,06,20,17,25,17.80
2012,06,20,17,26,17.80
2012,06,20,17,27,17.80
2012,06,20,17,28,17.80
2012,06,20,17,29,17.80
2012,06,20,17,30,17.80
2012,06,20,17,31,17.80
2012,06,20,17,32,17.80
2012,06,20,17,33,17.80
2012,06,20,17,34,17.80
2012,06,20,17,35,17.80
2012,06,20,17,36,17.80
2012,06,20,17,37,17.80